North Myrtle Beach, SC

7:12 PM EST on November 18, 2019 (GMT -0500)
Grand Strand

Weather History for KCRE - August, 2019

Change the Weather History Date:

Wednesday, August 28, 2019

  Actual Average Record
Temperature  
Mean Temperature 79 °F 78 °F  
Max Temperature 86 °F 86 °F 96 °F (1990)
Min Temperature 71 °F 71 °F 59 °F (1945)
Degree Days  
Heating Degree Days 0 0  
Month to date heating degree days 0 0  
Since 1 June heating degree days 0 0  
Since 1 July heating degree days 0 0  
Cooling Degree Days 14 13  
Month to date cooling degree days 443 393  
Year to date cooling degree days 1735 1438  
Since 1 June cooling degree days 1342 1226  
Growing Degree Days 28 (Base 50)    
Moisture  
Dew Point 72 °F    
Average Humidity 83    
Maximum Humidity 100    
Minimum Humidity 65    
Precipitation  
Precipitation 0.11 in 0.24 in 2.90 in (1990)
Month to date precipitation 8.66 6.68  
Year to date precipitation 31.67 34.62  
Sea Level Pressure  
Sea Level Pressure 29.89 in    
Wind  
Wind Speed 4 mph (SW)    
Max Wind Speed 20 mph    
Max Gust Speed 24 mph    
Visibility 10 miles    
Events Rain , Thunderstorm    
T = Trace of Precipitation, MM = Missing Value Source: NWS Daily Summary

Daily Weather History Graph

Daily Weather History Graph

Search for Another Location

Airport or City:

Astronomy

Aug. 28, 2019 Rise Set
Actual Time 6:45 AM EDT 7:46 PM EDT
Civil Twilight 6:20 AM EDT 8:11 PM EDT
Nautical Twilight 5:49 AM EDT 8:41 PM EDT
Astronomical Twilight 5:18 AM EDT 9:13 PM EDT
Moon 4:24 AM EDT (8/28) 6:49 PM EDT (8/28)
Length of Visible Light 13h 51m
Length of Day
13h 00m
Waning Crescent, 5% of the Moon is Illuminated
Aug 28
Waning Crescent
Aug 30
New
Sep 5
First Quarter
Sep 14
Full
Sep 21
Last Quarter

Hourly Weather History & Observations

Time (EDT) Temp. Heat Index Dew Point Humidity Pressure Visibility Wind Dir Wind Speed Gust Speed Precip Events Conditions
12:53 AM 73.0 °F - 71.1 °F 93% 29.94 in 10.0 mi Calm Calm - N/A   Clear
1:53 AM 73.0 °F - 70.0 °F 90% 29.91 in 10.0 mi Calm Calm - N/A   Clear
2:53 AM 72.0 °F - 70.0 °F 93% 29.91 in 10.0 mi Calm Calm - N/A   Clear
3:53 AM 73.0 °F - 69.1 °F 87% 29.90 in 10.0 mi Calm Calm - N/A   Clear
4:53 AM 72.0 °F - 70.0 °F 93% 29.89 in 10.0 mi Calm Calm - N/A   Clear
5:53 AM 72.0 °F - 69.1 °F 91% 29.89 in 10.0 mi NNW 3.5 mph - N/A   Clear
6:53 AM 72.0 °F - 69.1 °F 91% 29.90 in 10.0 mi Calm Calm - N/A   Clear
7:53 AM 75.0 °F - 70.0 °F 84% 29.91 in 10.0 mi Calm Calm - N/A   Clear
8:53 AM 79.0 °F - 69.1 °F 72% 29.90 in 10.0 mi NNE 3.5 mph - N/A   Clear
9:53 AM 82.0 °F 85.9 °F 70.0 °F 67% 29.91 in 10.0 mi Variable 4.6 mph - N/A   Clear
10:53 AM 82.9 °F 87.5 °F 71.1 °F 67% 29.91 in 10.0 mi North - - N/A   Clear
11:53 AM 84.9 °F 90.7 °F 72.0 °F 65% 29.90 in 10.0 mi Variable 6.9 mph - N/A   Mostly Cloudy
12:53 PM 82.9 °F 88.8 °F 73.0 °F 72% 29.88 in 10.0 mi South 6.9 mph - N/A   Overcast
1:53 PM 82.0 °F 87.9 °F 73.9 °F 76% 29.88 in 10.0 mi SSW 10.4 mph - 0.00 in Rain Light Rain
2:53 PM 84.0 °F 91.9 °F 75.0 °F 74% 29.86 in 10.0 mi South 8.1 mph - 0.01 in   Mostly Cloudy
3:53 PM 82.0 °F 87.9 °F 73.9 °F 76% 29.85 in 10.0 mi SSW 11.5 mph - N/A   Scattered Clouds
4:53 PM 82.0 °F 87.9 °F 73.9 °F 76% 29.86 in 10.0 mi SSW 15.0 mph - 0.00 in Thunderstorm Scattered Clouds
5:07 PM 82.9 °F 90.2 °F 75.0 °F 77% 29.85 in 10.0 mi SW 12.7 mph - N/A   Partly Cloudy
5:53 PM 84.0 °F 91.9 °F 75.0 °F 74% 29.85 in 10.0 mi SW 10.4 mph - N/A   Scattered Clouds
6:53 PM 79.0 °F - 73.9 °F 84% 29.85 in 3.0 mi West 3.5 mph - 0.07 in Rain Heavy Rain
7:53 PM 78.1 °F - 75.0 °F 90% 29.86 in 10.0 mi Calm Calm - 0.03 in   Scattered Clouds
8:53 PM 79.0 °F - 75.9 °F 90% 29.87 in 10.0 mi Calm Calm - N/A   Mostly Cloudy
9:53 PM 77.0 °F - 75.9 °F 96% 29.88 in 10.0 mi Calm Calm - N/A   Partly Cloudy
10:53 PM 78.1 °F - 75.9 °F 93% 29.90 in 9.0 mi NNE 3.5 mph - N/A   Clear
11:53 PM 75.9 °F - 75.0 °F 97% 29.90 in 9.0 mi Calm Calm - N/A   Clear